CW3467 Sant Marti de Canals ES current weather conditions

sailwx.info

Wind from 217

Air temperature 3.9° C
Dewpoint -2.9° C

Last reported at 2017-Apr-28 07:07 UTC.
Time now 2017-Apr-28 08:13 UTC

Location: N 42°14' E 000°59'.
View on Google Maps.

See reports from other nearby stations

  
Tides and Currents Weather Stations Pressure Air Temp Water Temp Dewpoint Dewpoint Depression Visibility Wind Speed Wind Dir Waves Ship Positions
date/time (UTC)wind fromknots sea level pressurealtimeterstation pressurevisibilityair tempwater tempwave heightnotes
2017-Apr-28 07:07 217 3.9
2017-Apr-28 06:51 308 2.2
2017-Apr-28 06:37 317 1.7
2017-Apr-28 06:20 036 0.6
2017-Apr-28 06:07 049 0.6
2017-Apr-28 05:50 081 0.6
2017-Apr-28 05:37 053 -0.0
2017-Apr-28 05:20 355 -0.0
2017-Apr-28 05:07 223 -0.0
2017-Apr-28 04:50 146 -0.0
2017-Apr-28 04:37 118 0.6
2017-Apr-28 04:20 104 -0.0
2017-Apr-28 04:07 217 0.6
2017-Apr-28 03:51 103 0.6
2017-Apr-28 03:37 125 0.6
2017-Apr-28 03:20 111 0.6
2017-Apr-28 03:07 142 -0.0
2017-Apr-28 02:50 148 0.6
2017-Apr-28 02:37 120 1.1
2017-Apr-28 02:20 131 1.1
2017-Apr-28 02:07 050 1.1
2017-Apr-28 01:50 075 1.1
2017-Apr-28 01:37 133 2.2
2017-Apr-28 01:20 050 2.2
2017-Apr-28 01:07 070 2.2
2017-Apr-28 00:50 039 2.2
2017-Apr-28 00:37 116 2.8
2017-Apr-28 00:20 148 2 gusting 4 2.8
2017-Apr-28 00:07 147 4.4
2017-Apr-27 23:50 068 4.4
2017-Apr-27 23:37 037 2 gusting 6 5.0
2017-Apr-27 23:20 024 1 gusting 9 5.0
2017-Apr-27 23:07 350 6 gusting 10 5.6
2017-Apr-27 22:50 057 6 gusting 11 5.0
2017-Apr-27 22:37 056 5 gusting 11 5.6
2017-Apr-27 22:20 027 6 gusting 10 5.6
2017-Apr-27 22:07 353 2 gusting 9 5.6
2017-Apr-27 22:05 023 3 gusting 9 5.0
2017-Apr-27 21:50 347 1 gusting 6 5.0
2017-Apr-27 21:37 059 3 gusting 9 5.0
2017-Apr-27 21:20 322 4 gusting 10 5.6
2017-Apr-27 21:07 050 2 gusting 9 5.6
2017-Apr-27 21:05 008 1 gusting 7 5.6
2017-Apr-27 20:50 352 1 gusting 9 5.6
2017-Apr-27 20:37 011 0 gusting 4 5.6
2017-Apr-27 20:35 059 0 gusting 4 5.6
2017-Apr-27 20:20 058 5.6
2017-Apr-27 20:07 352 0 gusting 4 5.6
2017-Apr-27 20:05 353 5.6
2017-Apr-27 19:50 357 0 gusting 5 5.6
2017-Apr-27 19:37 028 1 gusting 6 6.1
2017-Apr-27 19:19 039 0 gusting 5 6.1
2017-Apr-27 19:07 046 2 gusting 8 6.7
2017-Apr-27 19:05 071 2 gusting 8 6.7
2017-Apr-27 18:50 043 1 gusting 10 6.7
2017-Apr-27 18:37 339 2 gusting 9 7.2
2017-Apr-27 18:34 047 3 gusting 9 7.2
2017-Apr-27 18:20 038 2 gusting 11 7.2
2017-Apr-27 18:07 084 6 gusting 13 7.8
2017-Apr-27 18:04 354 5 gusting 13 7.8
2017-Apr-27 17:49 319 5 gusting 11 8.3
2017-Apr-27 17:37 054 6 gusting 9 8.9
2017-Apr-27 17:34 075 6 gusting 11 8.9
2017-Apr-27 17:19 036 3 gusting 12 9.4
2017-Apr-27 17:07 004 6 gusting 13 9.4
2017-Apr-27 17:04 068 4 gusting 9 9.4
2017-Apr-27 16:49 023 1 gusting 10 9.4
2017-Apr-27 16:37 044 4 gusting 9 8.9
2017-Apr-27 16:34 066 0 gusting 10 8.9
2017-Apr-27 16:19 353 5 gusting 12 8.9
2017-Apr-27 16:07 343 1 gusting 9 8.9
2017-Apr-27 16:04 044 1 gusting 9 8.9
2017-Apr-27 15:49 349 3 gusting 9 9.4
2017-Apr-27 15:37 358 2 gusting 9 10.0
2017-Apr-27 15:34 017 6 gusting 11 10.0
2017-Apr-27 15:19 043 4 gusting 10 10.0
2017-Apr-27 15:07 352 0 gusting 13 10.6
2017-Apr-27 14:49 034 0 gusting 8 10.0
2017-Apr-27 14:37 353 1 gusting 7 10.6
2017-Apr-27 14:34 026 1 gusting 7 10.0
2017-Apr-27 14:19 321 1 gusting 7 9.4
2017-Apr-27 14:07 346 3 gusting 7 9.4
2017-Apr-27 14:04 300 8.9
2017-Apr-27 13:49 212 8.9
2017-Apr-27 13:37 325 0 gusting 11 8.3
2017-Apr-27 13:34 359 5 gusting 11 7.8
2017-Apr-27 13:19 336 1 gusting 7 7.8
2017-Apr-27 13:07 353 6 gusting 13 7.8
2017-Apr-27 13:04 333 5 gusting 15 7.2
2017-Apr-27 12:49 351 5 gusting 13 7.2
2017-Apr-27 12:37 003 4 gusting 11 7.2
2017-Apr-27 12:34 354 5 gusting 11 7.2
2017-Apr-27 12:19 355 3 gusting 9 6.7
2017-Apr-27 12:07 343 1 gusting 8 6.7
2017-Apr-27 12:04 060 3 gusting 13 6.1
2017-Apr-27 11:49 344 5 gusting 14 6.1
2017-Apr-27 11:37 037 6 gusting 13 6.7
2017-Apr-27 11:34 351 4 gusting 11 6.7
2017-Apr-27 11:18 053 6 gusting 11 6.1
2017-Apr-27 10:48 006 6.1
2017-Apr-27 10:37 324 0 gusting 5 6.1
2017-Apr-27 10:33 327 6.1
2017-Apr-27 10:18 332 5.6
2017-Apr-27 10:07 349 0 gusting 4 5.6
2017-Apr-27 10:03 203 0 gusting 6 5.0
2017-Apr-27 09:48 352 5.0
2017-Apr-27 09:37 070 5.0
2017-Apr-27 09:33 348 4.4
2017-Apr-27 09:18 068 1 gusting 6 3.9
2017-Apr-27 09:07 056 0 gusting 5 3.9
2017-Apr-27 09:03 079 3.9
2017-Apr-27 08:48 050 3 gusting 11 3.3
2017-Apr-27 08:37 041 4 gusting 7 2.8
2017-Apr-27 08:33 063 3 gusting 8 2.2
2017-Apr-27 08:18 070 3 gusting 8 2.2
2017-Apr-27 08:07 046 0 gusting 7 2.8
2017-Apr-27 08:03 050 1 gusting 7 2.8
2017-Apr-27 07:48 019 2.8
2017-Apr-27 07:37 058 1 gusting 3 3.3
2017-Apr-27 07:33 322 2.8
2017-Apr-27 07:18 008 2.8
2017-Apr-27 07:07 084 0 gusting 2 2.8
2017-Apr-27 07:03 022 2.8
2017-Apr-27 06:48 133 2.8
2017-Apr-27 06:37 143 2.8
2017-Apr-27 06:33 139 2.8
2017-Apr-27 06:18 113 2.8
2017-Apr-27 06:03 113 2.8
2017-Apr-27 05:48 113 2.8
2017-Apr-27 05:33 106 2.8
2017-Apr-27 05:18 347 2.8
2017-Apr-27 05:03 356 0 gusting 2 2.8
2017-Apr-27 04:48 008 2.8
2017-Apr-27 04:37 078 0 gusting 3 3.3
2017-Apr-27 04:33 332 0 gusting 4 2.8
2017-Apr-27 04:18 115 1 gusting 6 2.8
2017-Apr-27 04:07 049 2 gusting 6 3.3
2017-Apr-27 04:03 038 1 gusting 7 2.8
2017-Apr-27 03:48 027 4 gusting 7 2.8
2017-Apr-27 03:37 073 3 gusting 6 3.3
2017-Apr-27 03:33 039 1 gusting 6 3.3
2017-Apr-27 03:18 064 2 gusting 8 2.8
2017-Apr-27 03:07 078 3 gusting 6 3.3
2017-Apr-27 03:03 047 3 gusting 9 2.8
2017-Apr-27 02:48 080 5 gusting 8 3.3
2017-Apr-27 02:37 054 4 gusting 7 3.3
2017-Apr-27 02:33 248 3 gusting 8 3.3
2017-Apr-27 02:18 058 5 gusting 10 3.3
2017-Apr-27 02:07 094 1 gusting 6 3.9
2017-Apr-27 02:03 046 2 gusting 6 3.3
2017-Apr-27 01:48 215 3.9
2017-Apr-27 01:37 005 3 gusting 7 3.9
2017-Apr-27 01:33 051 4 gusting 8 3.9
2017-Apr-27 01:18 070 5 gusting 10 3.9
2017-Apr-27 01:07 349 3 gusting 8 4.4
2017-Apr-27 01:02 052 3 gusting 8 4.4
2017-Apr-27 00:48 023 3 gusting 6 5.6
2017-Apr-27 00:37 099 4 gusting 8 6.1
2017-Apr-27 00:32 029 5 gusting 10 6.1
2017-Apr-27 00:17 093 4 gusting 8 6.1
2017-Apr-27 00:07 118 3 gusting 8 6.1
2017-Apr-27 00:03 085 4 gusting 9 6.1
2017-Apr-26 23:47 037 1 gusting 8 6.1
2017-Apr-26 23:37 023 3 gusting 10 6.1
2017-Apr-26 23:32 056 4 gusting 12 6.1
2017-Apr-26 23:17 052 4 gusting 12 6.1
2017-Apr-26 23:07 076 5 gusting 12 6.1
2017-Apr-26 23:02 072 6 gusting 11 5.6
2017-Apr-26 22:47 097 3 gusting 10 5.6
2017-Apr-26 22:37 048 4 gusting 10 6.1
2017-Apr-26 22:32 079 5 gusting 10 5.6
2017-Apr-26 22:17 059 5 gusting 10 6.1
2017-Apr-26 22:07 085 6 gusting 12 6.1
2017-Apr-26 22:02 056 6 gusting 12 6.1
2017-Apr-26 21:47 086 6 gusting 12 6.1
2017-Apr-26 21:37 056 6 gusting 13 6.1
2017-Apr-26 21:32 019 4 gusting 11 6.1
2017-Apr-26 21:17 043 3 gusting 8 6.1
2017-Apr-26 21:07 013 2 gusting 8 6.7
2017-Apr-26 21:02 240 4 gusting 10 6.1
2017-Apr-26 20:47 075 5 gusting 12 6.1
2017-Apr-26 20:37 092 6 gusting 11 6.1
2017-Apr-26 20:32 055 6 gusting 11 6.1
2017-Apr-26 20:17 065 5 gusting 11 6.1
2017-Apr-26 20:02 089 5 gusting 10 6.7
2017-Apr-26 19:47 053 5 gusting 10 7.2
2017-Apr-26 19:37 075 6 gusting 8 7.8
2017-Apr-26 19:32 049 4 gusting 9 7.8
2017-Apr-26 19:17 029 4 gusting 10 9.4
2017-Apr-26 19:07 061 1 gusting 2 10.0
2017-Apr-26 19:02 051 9.4
2017-Apr-26 18:47 226 10.0
2017-Apr-26 18:37 234 10.0
2017-Apr-26 18:31 234 10.0
2017-Apr-26 18:16 227 0 gusting 4 10.0
2017-Apr-26 18:07 217 2 gusting 5 10.6
2017-Apr-26 18:01 126 2 gusting 6 10.6
2017-Apr-26 17:46 113 2 gusting 6 10.6
2017-Apr-26 17:37 163 3 gusting 5 11.1
2017-Apr-26 17:31 216 1 gusting 4 10.6
2017-Apr-26 17:16 235 1 gusting 7 11.1
2017-Apr-26 17:07 217 4 gusting 6 11.7
2017-Apr-26 17:01 158 1 gusting 3 11.7
2017-Apr-26 16:46 187 3 gusting 6 11.7
2017-Apr-26 16:37 155 2 gusting 5 11.7
2017-Apr-26 16:31 156 1 gusting 5 11.7
2017-Apr-26 16:16 228 5 gusting 8 11.7
2017-Apr-26 16:07 220 5 gusting 10 11.7
2017-Apr-26 16:01 229 6 gusting 10 11.7
2017-Apr-26 15:46 129 6 gusting 10 12.2
2017-Apr-26 15:37 134 6 gusting 10 12.8
2017-Apr-26 15:31 199 3 gusting 8 12.2
2017-Apr-26 15:16 194 5 gusting 9 12.2
2017-Apr-26 15:07 165 3 gusting 8 12.8
2017-Apr-26 15:01 257 5 gusting 12 13.3
2017-Apr-26 14:46 240 13.3
2017-Apr-26 14:37 189 6 gusting 12 13.9
2017-Apr-26 14:31 210 5 gusting 12 13.3
2017-Apr-26 14:16 137 6 gusting 12 13.3
2017-Apr-26 14:07 216 5 gusting 11 13.9
2017-Apr-26 14:01 190 5 gusting 11 13.3
2017-Apr-26 13:46 167 2 gusting 7 13.3
2017-Apr-26 13:37 164 5 gusting 12 13.3
2017-Apr-26 13:31 224 6 gusting 12 12.8
2017-Apr-26 13:16 218 2 gusting 6 13.9
2017-Apr-26 13:07 143 3 gusting 6 14.4
2017-Apr-26 13:01 211 1 gusting 6 13.9
2017-Apr-26 12:46 219 1 gusting 7 13.9
2017-Apr-26 12:31 229 0 gusting 8 13.9
2017-Apr-26 12:16 164 5 gusting 8 12.8
2017-Apr-26 12:07 118 6 gusting 9 12.8
2017-Apr-26 12:01 124 6 gusting 9 12.2
2017-Apr-26 11:46 156 5 gusting 10 12.2
2017-Apr-26 11:37 147 6 gusting 9 12.8
2017-Apr-26 11:31 153 5 gusting 7 12.8
2017-Apr-26 11:16 150 0 gusting 3 13.3
2017-Apr-26 11:07 258 1 gusting 3 13.9
2017-Apr-26 11:01 257 0 gusting 6 13.3
2017-Apr-26 10:46 146 2 gusting 5 13.3
2017-Apr-26 10:37 218 2 gusting 6 13.3
2017-Apr-26 10:31 218 13.3
2017-Apr-26 10:16 165 4 gusting 7 12.8
2017-Apr-26 10:07 138 5 gusting 8 12.8
2017-Apr-26 10:01 131 6 gusting 8 12.8
2017-Apr-26 09:46 149 1 gusting 6 13.3
2017-Apr-26 09:37 229 3 gusting 5 13.3
2017-Apr-26 09:31 155 1 gusting 4 13.3
2017-Apr-26 09:16 166 2 gusting 4 13.3
2017-Apr-26 09:07 227 1 gusting 4 13.3
2017-Apr-26 09:01 238 12.8
2017-Apr-26 08:46 158 12.2
2017-Apr-26 08:37 155 0 gusting 1 12.2
2017-Apr-26 08:31 218 12.2
2017-Apr-26 08:16 216 12.2
2017-Apr-26 08:07 229 12.2
2017-Apr-26 08:01 242 11.7